FDX2448 KMCO-KATL

Flight info

Callsign FDX2448
Flight time N/A
Altitude 34000
Route JEEMY4 PAINN SHRKS LAIRI LARZZ JJEDI4
Aircraft B77L/H-SDE1E2E3FGHIJ2J3J4J5M1RWXY/LB1D1

Departure

Time 2026-04-24 21:59
Airport Orlando International Airport (KMCO)

Arrival

Time N/A
Airport Hartsfield Jackson Atlanta International Airport (KATL)
Time Latitude Longitude Altitude Speed Heading
2026-04-24 21:35 28.42027 -81.33098 107 ft 0 kts
2026-04-24 21:50 28.42030 -81.33098 108 ft 1 kts
2026-04-24 21:50 28.42047 -81.33094 108 ft 3 kts 13°
2026-04-24 21:50 28.42076 -81.33086 108 ft 5 kts 14°
2026-04-24 21:51 28.42120 -81.33073 107 ft 8 kts 14°
2026-04-24 21:51 28.42178 -81.33053 108 ft 9 kts 19°
2026-04-24 21:51 28.42229 -81.33006 108 ft 10 kts 58°
2026-04-24 21:51 28.42270 -81.32947 106 ft 10 kts 37°
2026-04-24 21:52 28.42335 -81.32922 106 ft 11 kts
2026-04-24 21:52 28.42415 -81.32916 105 ft 12 kts
2026-04-24 21:52 28.42499 -81.32918 106 ft 12 kts 356°
2026-04-24 21:52 28.42584 -81.32925 107 ft 12 kts 356°
2026-04-24 21:53 28.42669 -81.32927 108 ft 12 kts 359°
2026-04-24 21:53 28.42753 -81.32925 109 ft 12 kts
2026-04-24 21:53 28.42837 -81.32918 109 ft 12 kts
2026-04-24 21:53 28.42922 -81.32922 110 ft 12 kts 356°
2026-04-24 21:54 28.43007 -81.32928 110 ft 12 kts 357°
2026-04-24 21:54 28.43092 -81.32930 113 ft 12 kts
2026-04-24 21:54 28.43177 -81.32927 113 ft 13 kts
2026-04-24 21:54 28.43273 -81.32923 112 ft 15 kts
2026-04-24 21:55 28.43379 -81.32921 111 ft 15 kts
2026-04-24 21:55 28.43485 -81.32925 112 ft 15 kts 356°
2026-04-24 21:55 28.43596 -81.32935 110 ft 17 kts 357°
2026-04-24 21:55 28.43725 -81.32933 107 ft 20 kts
2026-04-24 21:56 28.43866 -81.32929 107 ft 20 kts
2026-04-24 21:56 28.44004 -81.32915 107 ft 20 kts 18°
2026-04-24 21:56 28.44129 -81.32860 107 ft 18 kts
2026-04-24 21:56 28.44256 -81.32868 107 ft 18 kts 356°
2026-04-24 21:57 28.44383 -81.32865 110 ft 18 kts
2026-04-24 21:57 28.44511 -81.32859 112 ft 18 kts
2026-04-24 21:57 28.44638 -81.32863 112 ft 18 kts
2026-04-24 21:57 28.44653 -81.32862 112 ft 0 kts
2026-04-24 21:58 28.44661 -81.32861 112 ft 3 kts
2026-04-24 21:58 28.44694 -81.32849 112 ft 7 kts 33°
2026-04-24 21:58 28.44708 -81.32793 113 ft 9 kts 87°
2026-04-24 21:58 28.44702 -81.32719 111 ft 10 kts 120°
2026-04-24 21:59 28.44635 -81.32696 112 ft 14 kts 179°
2026-04-24 21:59 28.44354 -81.32691 109 ft 81 kts 180°
2026-04-24 21:59 28.43483 -81.32682 111 ft 165 kts 178°
2026-04-24 21:59 28.42258 -81.32627 719 ft 186 kts 179°
2026-04-24 22:00 28.40924 -81.32568 1612 ft 192 kts 178°
2026-04-24 22:00 28.39606 -81.32637 2484 ft 194 kts 193°
2026-04-24 22:00 28.38285 -81.33247 2848 ft 218 kts 208°
2026-04-24 22:00 28.36964 -81.34177 3519 ft 221 kts 213°
2026-04-24 22:01 28.35720 -81.35123 4562 ft 209 kts 220°
2026-04-24 22:01 28.34821 -81.36348 5457 ft 202 kts 244°
2026-04-24 22:01 28.34634 -81.37961 5705 ft 225 kts 284°
2026-04-24 22:01 28.35465 -81.39554 5963 ft 251 kts 317°
2026-04-24 22:02 28.37021 -81.40506 6583 ft 261 kts 345°
2026-04-24 22:02 28.38840 -81.40754 7307 ft 268 kts 357°
2026-04-24 22:02 28.40743 -81.40771 8028 ft 277 kts 359°
2026-04-24 22:02 28.42695 -81.40745 8908 ft 281 kts 359°
2026-04-24 22:03 28.44661 -81.40720 9856 ft 283 kts 359°
2026-04-24 22:03 28.46651 -81.40705 10582 ft 292 kts 358°
2026-04-24 22:03 28.48776 -81.40703 10816 ft 320 kts 358°
2026-04-24 22:03 28.51071 -81.40713 11032 ft 348 kts 358°
2026-04-24 22:04 28.53587 -81.40734 11631 ft 363 kts 358°
2026-04-24 22:04 28.56105 -81.40758 12479 ft 370 kts 357°
2026-04-24 22:04 28.58697 -81.40787 13442 ft 375 kts 357°
2026-04-24 22:04 28.61324 -81.40820 14359 ft 379 kts 357°
2026-04-24 22:05 28.63982 -81.40855 15239 ft 384 kts 357°
2026-04-24 22:05 28.66665 -81.40892 16112 ft 388 kts 356°
2026-04-24 22:05 28.69382 -81.40930 16952 ft 392 kts 356°
2026-04-24 22:05 28.72127 -81.40968 17834 ft 396 kts 356°
2026-04-24 22:06 28.74902 -81.41007 18592 ft 401 kts 356°
2026-04-24 22:06 28.77714 -81.41046 19275 ft 406 kts 356°
2026-04-24 22:06 28.80560 -81.41086 19971 ft 411 kts 356°
2026-04-24 22:06 28.83401 -81.41126 20666 ft 415 kts 356°
2026-04-24 22:07 28.86308 -81.41166 21344 ft 420 kts 356°
2026-04-24 22:07 28.89246 -81.41207 21996 ft 424 kts 356°
2026-04-24 22:07 28.92216 -81.41249 22646 ft 429 kts 356°
2026-04-24 22:07 28.95219 -81.41305 23293 ft 433 kts 355°
2026-04-24 22:08 28.98236 -81.41570 23868 ft 436 kts 352°
2026-04-24 22:08 29.01270 -81.41929 24407 ft 440 kts 352°
2026-04-24 22:08 29.04331 -81.42290 24972 ft 444 kts 352°
2026-04-24 22:08 29.07417 -81.42639 25553 ft 447 kts 352°
2026-04-24 22:09 29.10526 -81.42982 26133 ft 450 kts 352°
2026-04-24 22:09 29.13663 -81.43297 26671 ft 454 kts 353°
2026-04-24 22:09 29.16792 -81.43591 27202 ft 458 kts 353°
2026-04-24 22:09 29.19984 -81.43885 27725 ft 462 kts 353°
2026-04-24 22:10 29.23212 -81.44182 28256 ft 466 kts 353°
2026-04-24 22:10 29.26452 -81.44485 28765 ft 469 kts 353°
2026-04-24 22:10 29.29724 -81.44793 29278 ft 473 kts 353°
2026-04-24 22:10 29.33021 -81.45106 29783 ft 476 kts 353°
2026-04-24 22:11 29.36286 -81.45417 30344 ft 475 kts 353°
2026-04-24 22:11 29.39572 -81.45729 30959 ft 472 kts 353°
2026-04-24 22:11 29.42843 -81.46041 31576 ft 470 kts 352°
2026-04-24 22:11 29.46096 -81.46351 32146 ft 468 kts 352°
2026-04-24 22:12 29.49342 -81.46662 32677 ft 467 kts 352°
2026-04-24 22:12 29.52584 -81.46972 33204 ft 467 kts 352°
2026-04-24 22:12 29.55821 -81.47282 33724 ft 465 kts 352°
2026-04-24 22:12 29.59058 -81.47591 33982 ft 470 kts 352°
2026-04-24 22:13 29.62295 -81.47889 33965 ft 473 kts 353°
2026-04-24 22:13 29.68840 -81.48474 33961 ft 468 kts 353°
2026-04-24 22:14 29.75322 -81.49056 33971 ft 466 kts 353°
2026-04-24 22:14 29.81785 -81.49644 33977 ft 465 kts 353°
2026-04-24 22:15 29.88227 -81.50332 33978 ft 464 kts 348°
2026-04-24 22:15 29.94472 -81.52137 33980 ft 463 kts 340°
2026-04-24 22:16 30.00627 -81.54395 33977 ft 464 kts 340°
2026-04-24 22:16 30.06761 -81.56627 33956 ft 466 kts 340°
2026-04-24 22:17 30.12972 -81.58858 33964 ft 467 kts 340°
2026-04-24 22:17 30.19201 -81.61086 33953 ft 468 kts 340°
2026-04-24 22:18 30.25403 -81.63308 33961 ft 469 kts 340°
2026-04-24 22:18 30.31648 -81.65549 33965 ft 469 kts 340°
2026-04-24 22:19 30.37881 -81.67790 33952 ft 468 kts 340°
2026-04-24 22:19 30.44049 -81.70010 33930 ft 465 kts 340°
2026-04-24 22:20 30.50211 -81.72232 33932 ft 462 kts 340°
2026-04-24 22:20 30.56339 -81.74444 33942 ft 460 kts 340°
2026-04-24 22:21 30.62422 -81.76731 33949 ft 458 kts 336°
2026-04-24 22:21 30.68170 -81.79891 33961 ft 457 kts 331°
2026-04-24 22:22 30.73858 -81.83239 33977 ft 459 kts 331°
2026-04-24 22:22 30.79539 -81.86564 33984 ft 461 kts 331°
2026-04-24 22:23 30.85289 -81.89907 33949 ft 462 kts 332°
2026-04-24 22:23 30.91057 -81.93256 33945 ft 463 kts 332°
2026-04-24 22:24 30.96834 -81.96614 33960 ft 463 kts 332°